Location: Fornova de Taro
(44.7000°N, 10.1000°E)
Time: 05:30:53
(UTC+00:00)

Cosmos 292 Rocket - Pass Details

Date: 01 October 2022
Orbit: 673 x 692 km, 74.0° (Epoch: 27 November)

Event Time Altitude Azimuth Distance (km) Brightness Sun altitude
Exits shadow 01:50:07 15° 4° (N) 1,826 6.3 -35.5°
Drops below altitude 10° 01:51:02 10° 8° (N) 2,155 6.8 -35.4°
Sets 01:53:28 0° 16° (NNE) 3,074 7.8 -35.0°
